Weather History for Provo, UT

Change the Weather History Date:

Tuesday, February 19, 2013

  Actual Average Record
Temperature  
Mean Temperature 32 °F -  
Max Temperature 46 °F 40 °F 56 °F (1983)
Min Temperature 17 °F 25 °F 3 °F (2008)
Degree Days  
Heating Degree Days 34    
Moisture  
Dew Point 18 °F    
Average Humidity 61    
Maximum Humidity 100    
Minimum Humidity 37    
Precipitation  
Precipitation 0.00 in - - ()
Sea Level Pressure  
Sea Level Pressure 29.77 in    
Wind  
Wind Speed 7 mph (ESE)    
Max Wind Speed 30 mph    
Max Gust Speed 28 mph    
Visibility 11 miles    
Events      
Averages and records for this station are not official NWS values.
T = Trace of Precipitation, MM = Missing Value Source: NWS Daily Summary

Daily Weather History Graph

Daily Weather History Graph

Search for Another Location

Airport:

Trip Planner

Search our weather history database for the weather conditions in past years. The results will help you decide how hot, cold, wet, or windy it might be!

Date:

Astronomy

Feb. 19, 2013 Rise Set
Actual Time 7:14 AM MST 6:07 PM MST
Civil Twilight 6:46 AM MST 6:35 PM MST
Nautical Twilight 6:15 AM MST 7:06 PM MST
Astronomical Twilight 5:43 AM MST 7:38 PM MST
Moon 12:41 PM MST 2:49 AM MST
Length of Visible Light 11h 48m
Length of Day
10h 53m
Waxing Gibbous, 68% of the Moon is Illuminated
Feb 19
Waxing Gibbous
Feb 25
Full
Mar 4
Last Quarter
Mar 11
New
Mar 19
First Quarter

Hourly Weather History & Observations

Time (MST) Temp. Windchill Dew Point Humidity Pressure Visibility Wind Dir Wind Speed Gust Speed Precip Events Conditions
12:15 AM 19.4 °F - 17.6 °F 93% 29.96 in 10.0 mi Calm Calm - N/A   Clear
12:35 AM 19.4 °F - 17.6 °F 93% 29.95 in 10.0 mi Calm Calm - N/A   Clear
12:55 AM 19.4 °F 14.3 °F 19.4 °F 100% 29.94 in 10.0 mi North 3.5 mph - N/A   Clear
1:15 AM 19.4 °F 14.3 °F 15.8 °F 86% 29.93 in 10.0 mi NNW 3.5 mph - N/A   Clear
1:35 AM 19.4 °F 12.8 °F 15.8 °F 86% 29.92 in 10.0 mi NNW 4.6 mph - N/A   Clear
1:55 AM 17.6 °F - 15.8 °F 93% 29.92 in 10.0 mi Calm Calm - N/A   Clear
2:15 AM 17.6 °F 10.7 °F 15.8 °F 93% 29.91 in 10.0 mi North 4.6 mph - N/A   Clear
2:35 AM 21.2 °F 12.6 °F 15.8 °F 80% 29.90 in 10.0 mi North 6.9 mph - N/A   Clear
2:55 AM 23.0 °F - 17.6 °F 80% 29.89 in 10.0 mi Calm Calm - N/A   Clear
3:15 AM 24.8 °F - 15.8 °F 69% 29.88 in 10.0 mi Calm Calm - N/A   Clear
3:35 AM 26.6 °F 21.2 °F 17.6 °F 69% 29.87 in 10.0 mi NE 4.6 mph - N/A   Clear
3:55 AM 23.0 °F 17.0 °F 17.6 °F 80% 29.86 in 10.0 mi ENE 4.6 mph - N/A   Clear
4:15 AM 23.0 °F - 15.8 °F 74% 29.85 in 10.0 mi Calm Calm - N/A   Clear
4:55 AM 24.8 °F - 15.8 °F 69% 29.84 in 10.0 mi Calm Calm - N/A   Clear
5:15 AM 28.4 °F 16.2 °F 15.8 °F 59% 29.83 in 10.0 mi SSE 17.3 mph - N/A   Clear
5:35 AM 30.2 °F 19.3 °F 15.8 °F 55% 29.83 in 10.0 mi SE 15.0 mph - N/A   Clear
5:55 AM 30.2 °F 19.8 °F 15.8 °F 55% 29.83 in 10.0 mi SE 13.8 mph - N/A   Clear
6:15 AM 28.4 °F 23.3 °F 12.2 °F 51% 29.83 in 10.0 mi East 4.6 mph - N/A   Clear
6:35 AM 30.2 °F 22.6 °F 15.8 °F 55% 29.83 in 10.0 mi ESE 8.1 mph 16.1 mph N/A   Clear
6:47 AM 30.2 °F 18.5 °F 15.8 °F 55% 29.83 in 15.0 mi SE 17.3 mph - N/A   Mostly Cloudy
7:56 AM 32.0 °F 17.6 °F 17.6 °F 55% 29.80 in 15.0 mi SE 29.9 mph - N/A   Mostly Cloudy
9:48 AM 37.4 °F 26.9 °F 21.2 °F 52% 29.80 in 15.0 mi SE 20.7 mph - N/A   Mostly Cloudy
10:47 AM 39.2 °F 29.6 °F 21.2 °F 49% 29.77 in 15.0 mi SE 19.6 mph 27.6 mph N/A   Scattered Clouds
11:55 AM 42.8 °F 35.8 °F 23.0 °F 46% 29.75 in 15.0 mi SE 13.8 mph - N/A   Partly Cloudy
12:50 PM 44.6 °F 38.1 °F 24.8 °F 46% 29.71 in 15.0 mi SE 13.8 mph - N/A   Scattered Clouds
1:54 PM 46.4 °F 41.9 °F 23.0 °F 40% 29.67 in 15.0 mi SE 9.2 mph - N/A   Scattered Clouds
2:50 PM 46.4 °F 44.3 °F 21.2 °F 37% 29.64 in 15.0 mi Variable 4.6 mph - N/A   Mostly Cloudy
3:50 PM 44.6 °F 42.2 °F 19.4 °F 37% 29.62 in 15.0 mi Variable 4.6 mph - N/A   Overcast
6:55 PM 39.2 °F 30.2 °F 21.2 °F 49% 29.61 in 15.0 mi ESE 17.3 mph - N/A   Mostly Cloudy
8:48 PM 37.4 °F 27.8 °F 19.4 °F 48% 29.60 in 15.0 mi ESE 17.3 mph 23.0 mph N/A   Scattered Clouds
8:55 PM 37.4 °F 27.5 °F 19.4 °F 48% 29.60 in 10.0 mi SE 18.4 mph - N/A   Clear
9:15 PM 37.4 °F 27.5 °F 21.2 °F 52% 29.60 in 10.0 mi SSE 18.4 mph - N/A   Clear
9:35 PM 37.4 °F 29.3 °F 21.2 °F 52% 29.60 in 10.0 mi SSE 12.7 mph - N/A   Mostly Cloudy
9:55 PM 37.4 °F 26.9 °F 21.2 °F 52% 29.61 in 10.0 mi SSE 20.7 mph - N/A   Scattered Clouds
10:15 PM 37.4 °F 27.5 °F 21.2 °F 52% 29.61 in 10.0 mi SSE 18.4 mph - N/A   Scattered Clouds
10:35 PM 35.6 °F 26.2 °F 21.2 °F 56% 29.61 in 10.0 mi SSE 15.0 mph - N/A   Partly Cloudy
10:55 PM 37.4 °F 32.8 °F 19.4 °F 48% 29.61 in 10.0 mi ESE 5.8 mph - N/A   Mostly Cloudy
11:15 PM 39.2 °F 35.9 °F 17.6 °F 42% 29.60 in 10.0 mi East 4.6 mph - N/A   Scattered Clouds
11:35 PM 37.4 °F 30.3 °F 19.4 °F 48% 29.60 in 10.0 mi SE 10.4 mph 16.1 mph N/A   Mostly Cloudy
11:55 PM 37.4 °F 32.1 °F 19.4 °F 48% 29.60 in 10.0 mi SE 6.9 mph - N/A   Mostly Cloudy